sat.trackr.live / text

‹ back to catalog

TIANMU-1 07

NORAD 57399 · 2023-101A

PAYLOAD ACTIVE UNKNOWN

§ Identity

Operator
Country
PRC
Launch date
2023-07-20
Launch site
JSC
Launch vehicle
Mass (kg)
RCS (m²)

Purposes: earth_obs

External: N2YO · Heavens-Above · Gunter

§ Orbital elements

Epoch: 2026-09-19T23:30:45.617760Z

Period
94.07 min
Inclination
97.2505°
Eccentricity
0.0003607
Mean motion
15.30743071 rev/d
Perigee alt
471.1 km
Apogee alt
476.1 km
Semi-major
6,851.7 km
B*
1.3423e-4
RAAN
311.4847°
Arg perigee
133.2467°
Mean anomaly
226.9076°
Rev number
17,614

§ Raw data

TIANMU-1 071 57399U 23101A   26262.97969465  .00003914  00000+0  13423-3 0  99952 57399  97.2505 311.4847 0003607 133.2467 226.9076 15.30743071176145

JSON: /api/v1/satellites/57399 · /tle

For live sub-satellite position, see the globe view (requires WebGL).

§ Visibility from observer

Set your observer location to see the next 7 days of passes ≥ 10°. The values pass through the URL so the page stays shareable.

No JS? Fill the form by hand. The geolocation button needs JavaScript.